Weather Roundup
Issued by NWS

Home | Current Version | Previous Version | Graphics & Text | Print | Product List | Glossary Off
Versions: 1 2 3 4 5 6 7 8 9 10 11 12 13 14 15 16 17 18 19 20 21 22 23 24 25 26 27 28 29 30 31 32 33 34 35 36 37 38 39 40 41 42 43 44 45 46 47 48 49 50

000
NZUS93 KARX 230559
HRRWXR

CURRENT HOURLY OBSERVATIONS ACROSS
MUCH OF THE UPPER MISSISSIPPI VALLEY
NATIONAL WEATHER SERVICE LA CROSSE WI
100 AM CDT THU OCT 23 2014


...SOUTHEAST MINNESOTA...


CITY           SKY/WX    TMP DP  RH WIND       PRES   REMARKS
ROCHESTER      CLOUDY    52  39  61 S15G22    30.08F
ROCHESTER/MAYO FAIR      52  37  54 SE9G18    30.07S
WINONA         CLOUDY    50  43  76 SE8       30.11F
AUSTIN         CLOUDY    52  41  66 S12G17    30.07S
ALBERT LEA     CLOUDY    54  43  66 S13       30.05F
DODGE CENTER   CLOUDY    54  41  62 S18       30.05F
PRESTON        MOCLDY    48  40  72 S9        30.10F
OWATONNA       CLOUDY    55  41  58 S16G23    30.02F
FARIBAULT      LGT RAIN  54  45  71 S7        30.03F
$$

...ELSEWHERE IN MINNESOTA...


CITY           SKY/WX    TMP DP  RH WIND       PRES   REMARKS
MINNEAPOLIS    CLOUDY    56  41  57 S10       30.01F
INTNL FALLS    LGT RAIN  51  43  74 S9        29.90F
DULUTH         PTCLDY    51  36  56 S13       29.99F
RED WING       NOT AVBL
REDWOOD FALLS  CLOUDY    58  56  93 SW7       29.97F
MANKATO        CLOUDY    57  43  58 S10G22    30.01F
WORTHINGTON    CLOUDY    55  55 100 SW8       30.02F
FAIRMONT       CLOUDY    55  48  76 S13       30.02S
$$

...SOUTHWEST WISCONSIN...


CITY           SKY/WX    TMP DP  RH WIND       PRES   REMARKS
LA CROSSE      CLOUDY    53  38  56 SW8       30.14R
PRAIRIE DU CHI MOCLDY    48  36  62 E8        30.15F
BOSCOBEL       MOCLDY    41  37  86 CALM      30.17F
LONE ROCK      NOT AVBL
PLATTEVILLE    PTCLDY    43  35  74 E7        30.19F
FORT MC COY    MOCLDY    51  35  54 S9        30.15S
VIROQUA        FAIR      47  36  65 S10       30.14F
WIS DELLS      CLEAR     43  33  69 CALM      30.17F
$$

...ELSEWHERE IN WISCONSIN...


CITY           SKY/WX    TMP DP  RH WIND       PRES   REMARKS
MILWAUKEE      CLEAR     34  31  88 CALM      30.25F
MADISON        CLEAR     41  37  86 S8        30.21F
GREEN BAY      CLEAR     37  35  92 S3        30.23S FOG
EAU CLAIRE     NOT AVBL
BLACK RVR FLS  FAIR      39  35  84 E3        30.13F
MEDFORD        PTCLDY    43  36  75 SE8       30.14S
WAUSAU         CLEAR     39  36  89 SE6       30.16F WCI  35
WIS RAPIDS     CLEAR     41  36  82 SE7       30.18F
MARSHFIELD     MOCLDY    45  36  70 S7        30.14F
RICE LAKE      CLOUDY    49  41  75 SE9       30.09F
$$

...NORTHEAST IOWA...


CITY           SKY/WX    TMP DP  RH WIND       PRES   REMARKS
DECORAH        CLOUDY    50  41  71 S8        30.11F
MASON CITY     LGT RAIN  52  44  74 S10       30.08F
CHARLES CITY   CLOUDY    54  39  58 S8        30.12F
OELWEIN        PTCLDY    50  39  66 S14       30.12F
$$

...ELSEWHERE IN IOWA...


CITY           SKY/WX    TMP DP  RH WIND       PRES   REMARKS
DES MOINES     CLOUDY    56  45  66 CALM      30.12R
IOWA CITY      PTCLDY    43  39  86 SE6       30.18F
FORT DODGE     CLOUDY    55  48  76 S7        30.05F
$$

...NORTHERN ILLINOIS...


CITY           SKY/WX    TMP DP  RH WIND       PRES   REMARKS
CHICAGO-OHARE  CLEAR     38  35  89 CALM      30.25F
CHICAGO-MIDWAY CLEAR     45  39  79 SE6       30.26F
MOLINE         PTCLDY    44  35  70 SE7       30.19F
ROCKFORD       PTCLDY    40  34  79 SE9       30.23F WCI  34
PEORIA         CLEAR     42  36  79 CALM      30.23F
$$

NOTE: "FAIR" INDICATES FEW OR NO CLOUDS BELOW 12,000 FEET WITH NO
SIGNIFICANT WEATHER AND/OR OBSTRUCTIONS TO VISIBILITY. WIND
SPEEDS ARE IN MILES-PER-HOUR.



USA.gov is the U.S. government's official web portal to all federal, state and local government web resources and services.